When you browse on this site, cookies collect data to enhance your experience and personalize the content and advertising you see.
Visit our Privacy Policy to learn more. By continuing to use the site, you agree to this use of cookies and data.
  • en Suisse
  • Liste des pays
  • À 7 jours
  • Température de l'eau
  • Carte météo
  • Widgets météo
  • user-avatar
    Se connecter

    Météo par heure à Ho Chi Minh

    Ce jour, 24 Septembre, Mardi

    Heure Température Précipitation Vent Pression Humidité
    00:00 +27°C° 0 mm 1 m/s 758 mmHg 86%
    01:00 +27°C° 0 mm 1 m/s 758 mmHg 85%
    02:00 +27°C° 0 mm 1 m/s 758 mmHg 86%
    03:00 +27°C° 0 mm 1 m/s 758 mmHg 87%
    04:00 +26°C° 0 mm 1 m/s 758 mmHg 87%
    05:00 +27°C° 0 mm 1 m/s 758 mmHg 86%
    06:00 +27°C° 0 mm 1 m/s 758 mmHg 85%
    07:00 +28°C° 0 mm 1 m/s 759 mmHg 87%
    08:00 +30°C° 0 mm 1 m/s 759 mmHg 80%
    09:00 +31°C° 0 mm 1 m/s 759 mmHg 73%
    10:00 +33°C° 0 mm 1 m/s 759 mmHg 66%
    11:00 +33°C° 0 mm 1 m/s 758 mmHg 62%
    12:00 +34°C° 0 mm 1 m/s 758 mmHg 59%
    13:00 +35°C° 0 mm 1 m/s 757 mmHg 56%
    14:00 +34°C° 0.1 mm 1 m/s 757 mmHg 57%
    15:00 +35°C° 0.1 mm 2 m/s 756 mmHg 58%
    16:00 +34°C° 0.1 mm 2 m/s 756 mmHg 59%
    17:00 +32°C° 0.1 mm 2 m/s 757 mmHg 65%
    18:00 +30°C° 0.1 mm 2 m/s 757 mmHg 71%
    19:00 +29°C° 0.1 mm 3 m/s 757 mmHg 77%
    20:00 +29°C° 0 mm 2 m/s 758 mmHg 79%
    21:00 +29°C° 0 mm 2 m/s 758 mmHg 80%
    22:00 +28°C° 0 mm 2 m/s 759 mmHg 82%
    23:00 +28°C° 0 mm 2 m/s 758 mmHg 83%

    Demain, 25 Septembre, Mercredi

    Heure Température Précipitation Vent Pression Humidité
    00:00 +28°C° 0 mm 1 m/s 758 mmHg 84%
    01:00 +28°C° 0 mm 1 m/s 758 mmHg 85%
    02:00 +28°C° 0 mm 1 m/s 758 mmHg 86%
    03:00 +27°C° 0 mm 1 m/s 757 mmHg 87%
    04:00 +27°C° 0 mm 1 m/s 757 mmHg 88%
    05:00 +27°C° 0 mm 1 m/s 758 mmHg 86%
    06:00 +28°C° 0 mm 1 m/s 758 mmHg 85%
    07:00 +28°C° 0 mm 1 m/s 759 mmHg 83%
    08:00 +30°C° 0 mm 1 m/s 759 mmHg 77%
    09:00 +32°C° 0 mm 1 m/s 759 mmHg 70%
    10:00 +34°C° 0 mm 2 m/s 759 mmHg 63%
    11:00 +35°C° 0.2 mm 2 m/s 758 mmHg 62%
    12:00 +35°C° 0.2 mm 2 m/s 758 mmHg 61%
    13:00 +35°C° 0.2 mm 2 m/s 757 mmHg 60%
    14:00 +35°C° 0.4 mm 2 m/s 757 mmHg 60%
    15:00 +35°C° 0.4 mm 2 m/s 757 mmHg 61%
    16:00 +35°C° 0.4 mm 2 m/s 757 mmHg 61%
    17:00 +32°C° 0.4 mm 2 m/s 757 mmHg 68%
    18:00 +31°C° 0.4 mm 2 m/s 758 mmHg 75%
    19:00 +29°C° 0.4 mm 3 m/s 758 mmHg 81%
    20:00 +29°C° 0.2 mm 3 m/s 758 mmHg 82%
    21:00 +29°C° 0.2 mm 2 m/s 759 mmHg 84%
    22:00 +28°C° 0.2 mm 2 m/s 759 mmHg 85%
    23:00 +28°C° 0 mm 2 m/s 759 mmHg 86%

    Après-demain, 26 Septembre, Jeudi

    Heure Température Précipitation Vent Pression Humidité
    00:00 +28°C° 0 mm 2 m/s 759 mmHg 86%
    01:00 +28°C° 0 mm 1 m/s 758 mmHg 87%
    02:00 +27°C° 0 mm 1 m/s 758 mmHg 88%
    03:00 +27°C° 0 mm 2 m/s 758 mmHg 89%
    04:00 +27°C° 0 mm 2 m/s 758 mmHg 90%
    05:00 +27°C° 0 mm 2 m/s 758 mmHg 89%
    06:00 +28°C° 0 mm 2 m/s 759 mmHg 87%
    07:00 +28°C° 0 mm 1 m/s 759 mmHg 86%
    08:00 +30°C° 0 mm 2 m/s 759 mmHg 79%
    09:00 +31°C° 0 mm 2 m/s 759 mmHg 72%
    10:00 +34°C° 0 mm 2 m/s 760 mmHg 66%
    11:00 +34°C° 0.2 mm 2 m/s 759 mmHg 64%
    12:00 +35°C° 0.2 mm 2 m/s 758 mmHg 62%
    13:00 +35°C° 0.2 mm 2 m/s 757 mmHg 60%
    14:00 +35°C° 1.2 mm 2 m/s 757 mmHg 62%
    15:00 +34°C° 1.2 mm 2 m/s 757 mmHg 64%
    16:00 +33°C° 1.2 mm 1 m/s 757 mmHg 66%
    17:00 +32°C° 0.9 mm 2 m/s 757 mmHg 72%
    18:00 +30°C° 0.9 mm 2 m/s 757 mmHg 78%
    19:00 +29°C° 0.9 mm 2 m/s 758 mmHg 84%
    20:00 +29°C° 0.2 mm 2 m/s 758 mmHg 84%
    21:00 +29°C° 0.2 mm 2 m/s 758 mmHg 84%
    22:00 +28°C° 0.2 mm 1 m/s 759 mmHg 84%
    23:00 +28°C° 0 mm 1 m/s 759 mmHg 85%

    27 Septembre, Vendredi

    Heure Température Précipitation Vent Pression Humidité
    00:00 +28°C° 0 mm 1 m/s 758 mmHg 86%
    01:00 +26°C° 0 mm 0 m/s 758 mmHg 87%
    02:00 +28°C° 0 mm 1 m/s 758 mmHg 88%
    03:00 +27°C° 0 mm 1 m/s 758 mmHg 89%
    04:00 +27°C° 0 mm 2 m/s 758 mmHg 90%
    05:00 +27°C° 0 mm 2 m/s 758 mmHg 88%
    06:00 +28°C° 0 mm 2 m/s 758 mmHg 87%
    07:00 +28°C° 0 mm 2 m/s 759 mmHg 86%
    08:00 +30°C° 0 mm 2 m/s 759 mmHg 78%
    09:00 +31°C° 0 mm 2 m/s 759 mmHg 71%
    10:00 +33°C° 0 mm 1 m/s 759 mmHg 64%
    11:00 +34°C° 0.1 mm 1 m/s 758 mmHg 61%
    12:00 +35°C° 0.1 mm 1 m/s 758 mmHg 58%
    13:00 +35°C° 0.1 mm 1 m/s 757 mmHg 54%
    14:00 +35°C° 1.1 mm 2 m/s 757 mmHg 60%
    15:00 +34°C° 1.1 mm 3 m/s 756 mmHg 66%
    16:00 +33°C° 1.1 mm 3 m/s 756 mmHg 71%
    17:00 +31°C° 1.6 mm 3 m/s 757 mmHg 75%
    18:00 +30°C° 1.6 mm 3 m/s 757 mmHg 79%
    19:00 +29°C° 1.6 mm 3 m/s 757 mmHg 83%
    20:00 +29°C° 0.5 mm 3 m/s 758 mmHg 83%
    21:00 +28°C° 0.5 mm 2 m/s 758 mmHg 84%
    22:00 +28°C° 0.5 mm 2 m/s 758 mmHg 84%
    23:00 +28°C° 0 mm 2 m/s 758 mmHg 85%

    28 Septembre, Samedi

    Heure Température Précipitation Vent Pression Humidité
    00:00 +28°C° 0 mm 2 m/s 758 mmHg 86%
    01:00 +27°C° 0 mm 2 m/s 757 mmHg 87%
    02:00 +27°C° 0 mm 2 m/s 757 mmHg 88%
    03:00 +27°C° 0 mm 2 m/s 757 mmHg 89%
    04:00 +27°C° 0 mm 1 m/s 757 mmHg 90%
    05:00 +27°C° 0 mm 1 m/s 758 mmHg 89%
    06:00 +27°C° 0 mm 1 m/s 758 mmHg 87%
    07:00 +28°C° 0 mm 1 m/s 759 mmHg 86%
    08:00 +30°C° 0.1 mm 1 m/s 759 mmHg 79%
    09:00 +31°C° 0.1 mm 1 m/s 759 mmHg 71%
    10:00 +33°C° 0.1 mm 1 m/s 759 mmHg 64%
    11:00 +34°C° 0.5 mm 1 m/s 758 mmHg 62%
    12:00 +34°C° 0.5 mm 1 m/s 758 mmHg 59%
    13:00 +35°C° 0.5 mm 1 m/s 757 mmHg 57%
    14:00 +35°C° 0.8 mm 2 m/s 757 mmHg 60%
    15:00 +35°C° 0.8 mm 2 m/s 756 mmHg 63%
    16:00 +34°C° 0.8 mm 3 m/s 756 mmHg 65%
    17:00 +33°C° 0.1 mm 3 m/s 756 mmHg 70%
    18:00 +30°C° 0.1 mm 3 m/s 757 mmHg 75%
    19:00 +29°C° 0.1 mm 2 m/s 757 mmHg 80%
    20:00 +29°C° 0.1 mm 2 m/s 758 mmHg 81%
    21:00 +28°C° 0.1 mm 2 m/s 758 mmHg 82%
    22:00 +28°C° 0.1 mm 2 m/s 759 mmHg 84%
    23:00 +28°C° 0 mm 1 m/s 758 mmHg 84%

    29 Septembre, Dimanche

    Heure Température Précipitation Vent Pression Humidité
    00:00 +28°C° 0 mm 1 m/s 758 mmHg 85%
    01:00 +28°C° 0 mm 1 m/s 758 mmHg 85%
    02:00 +28°C° 0 mm 1 m/s 758 mmHg 86%
    03:00 +27°C° 0 mm 1 m/s 757 mmHg 88%
    04:00 +27°C° 0 mm 1 m/s 757 mmHg 89%
    05:00 +27°C° 0 mm 1 m/s 758 mmHg 88%
    06:00 +28°C° 0 mm 2 m/s 758 mmHg 87%
    07:00 +28°C° 0 mm 2 m/s 758 mmHg 86%
    08:00 +30°C° 0 mm 2 m/s 758 mmHg 80%
    09:00 +31°C° 0 mm 2 m/s 758 mmHg 73%
    10:00 +34°C° 0 mm 3 m/s 758 mmHg 66%
    11:00 +34°C° 0.4 mm 2 m/s 758 mmHg 65%
    12:00 +34°C° 0.4 mm 2 m/s 757 mmHg 64%
    13:00 +35°C° 0.4 mm 2 m/s 756 mmHg 64%
    14:00 +35°C° 1.2 mm 2 m/s 756 mmHg 64%
    15:00 +33°C° 1.2 mm 1 m/s 756 mmHg 65%
    16:00 +33°C° 1.2 mm 1 m/s 755 mmHg 66%
    17:00 +32°C° 1.2 mm 1 m/s 756 mmHg 72%
    18:00 +30°C° 1.2 mm 2 m/s 756 mmHg 77%
    19:00 +29°C° 1.2 mm 2 m/s 757 mmHg 83%
    20:00 +29°C° 0.9 mm 2 m/s 757 mmHg 84%
    21:00 +28°C° 0.9 mm 2 m/s 757 mmHg 85%
    22:00 +28°C° 0.9 mm 2 m/s 758 mmHg 86%
    23:00 +28°C° 0 mm 2 m/s 757 mmHg 86%
    Voir plus